Regional Weather Roundup
Issued by NWS

Home | Current Version | Previous Version | Graphics & Text | Print | Product List | Glossary Off
Versions: 1 2 3 4 5 6 7 8 9 10 11 12 13 14 15 16 17 18 19 20 21 22 23 24 25 26 27 28 29 30 31 32 33 34 35 36 37 38 39 40 41 42 43 44 45 46 47 48 49 50

000
ASUS44 KFWD 282315
RWRTX
NORTH TEXAS HOURLY WEATHER ROUNDUP
NATIONAL WEATHER SERVICE FORT WORTH TX
600 PM CDT TUE MAR 28 2017

NOTE: "FAIR" INDICATES FEW OR NO CLOUDS BELOW 12,000 FEET WITH NO
SIGNIFICANT WEATHER AND/OR OBSTRUCTIONS TO VISIBILITY.

TXZ118-119-290000-
DALLAS/FORT WORTH METROPLEX

CITY           SKY/WX    TMP DP  RH WIND       PRES   REMARKS
DFW AIRPORT    PTSUNNY   81  66  60 SE18G26   29.66F
DALLAS LOVE    PTSUNNY   82  64  54 SE18G24   29.68F
FTW MEACHAM    CLOUDY    81  62  52 SE17G28   29.66S
DAL-EXECUTIVE  PTSUNNY   81  64  56 SE21G30   29.68F
FTW-ALLIANCE   CLOUDY    79  65  62 SE14      29.66F
FTW-NAS-JRB    CLOUDY    81  64  56 SE17G25   29.66F
FTW-SPINKS     PTSUNNY   81  63  54 SE16G26   29.68F
ARLINGTON      PTSUNNY   81  63  54 SE17G25   29.67F
GRAND PRAIRIE  SUNNY     81  63  54 SE14G21   29.69F
ADDISON        MOSUNNY   79  64  61 SE14G25   29.69F
MESQUITE       PTSUNNY   81  63  54 SE17G23   29.71S
LANCASTER      PTSUNNY   80  64  58 SE17G24   29.70S
$$

TXZ091>094-102>105-117-120-121-131>134-290000-
NORTH CENTRAL TEXAS

CITY           SKY/WX    TMP DP  RH WIND       PRES   REMARKS
SHRMAN/DENISON PTSUNNY   75  64  68 E10       29.72F
GAINESVILLE    CLOUDY    73  63  70 SE13      29.72S
BOWIE          CLOUDY    74  66  75 SE8       29.68F
BRIDGEPORT     CLOUDY    77  64  64 SE14      29.68S
DECATUR        CLOUDY    76  65  69 SE16      29.68S
DENTON         CLOUDY    77  66  68 SE14G23   29.67F
MCKINNEY       CLOUDY    78  67  68 SE13      29.71S
BONHAM         CLOUDY    75  64  69 E13       29.73F
GREENVILLE     MOSUNNY   81  63  54 SE10      29.73S
ROCKWALL       PTSUNNY   81  66  61 SE14G22   29.71S
TERRELL        PTSUNNY   83  62  49 SE20      29.71F
WAXAHACHIE     PTSUNNY   81  65  58 SE13G26   29.70S
CLEBURNE       PTSUNNY   79  66  65 S18G25    29.68F
GRANBURY       PTSUNNY   81  65  57 SE16G22   29.65F
$$

TXZ083>090-098>101-113>116-127>130-139>142-154-155-290000-
WESTERN NORTH TEXAS

CITY           SKY/WX    TMP DP  RH WIND       PRES   REMARKS
WICHITA FALLS  CLOUDY    69  62  78 E15       29.65F
WF-KICKAPOO    CLOUDY    69  64  82 E8G20     29.67F
VERNON         CLOUDY    70  59  69 SE17      29.64F
ABILENE        CLOUDY    73  64  73 SE21G32   29.58F
ABILENE-DYESS  CLOUDY    73  65  76 SW29G35   29.55S
GRAHAM         CLOUDY    75  66  73 SE10G21   29.60F
BRECKENRIDGE   CLOUDY    80  62  54 SE16G30   29.60F HAZE
CISCO          PTSUNNY   77  63  61 S24G33    29.61F
RANGER         PTSUNNY   77  63  61 SE21G28   29.63F
MINERAL WELLS  CLOUDY    79  64  60 SE18G29   29.63F
STEPHENVILLE   CLOUDY    79  63  57 SE18G28   29.67F
COMANCHE       CLOUDY    79  63  58 S17G31    29.63F
BROWNWOOD      PTSUNNY   79  63  57 SE22G28   29.62S
COLEMAN        MOSUNNY   77  62  58 S22G32    29.61F
$$

TXZ143>147-156>162-174-175-290000-
CENTRAL TEXAS

CITY           SKY/WX    TMP DP  RH WIND       PRES   REMARKS
WACO           PTSUNNY   81  64  56 SE22G28   29.67F
WACO-MCGREGOR  MOSUNNY   83  65  54 SE15      29.68F
HILLSBORO      PTSUNNY   80  65  59 SE12G23   29.68F
CORSICANA      MOSUNNY   82  63  52 SE21      29.71F
MEXIA          PTSUNNY   80  64  56 SE13G22   29.70F
HEARNE         MOSUNNY   83  63  50 SE20G26   29.70F
CAMERON        PTSUNNY   85  60  43 S16G25    29.69R
TEMPLE         MOSUNNY   82  62  50 SE23G31   29.68R
KILLEEN        CLOUDY    81  61  50 SE21G31   29.67R
KILLEEN-SKYLRK CLOUDY    81  59  47 SE21G31   29.68R
FORT HOOD      CLOUDY    80  59  47 SE20G30   29.65R
GATESVILLE     SUNNY     81  61  50 SE12G20   29.70R
HAMILTON       PTSUNNY   80  63  54 S23       29.67F
LAMPASAS       CLOUDY    78  61  56 S15G24    29.68R
$$

TXZ095>097-106>112-122>126-135>138-148>153-164>167-290000-
EAST TEXAS

CITY           SKY/WX    TMP DP  RH WIND       PRES   REMARKS
PARIS          PTSUNNY   75  63  64 E9        29.77F
SULPHUR SPRNGS PTSUNNY   79  65  63 SE9       29.76F
MOUNT PLEASANT SUNNY     81  63  55 SE13      29.76F
GILMER         PTSUNNY   82  64  54 SE12G21   29.75F
MINEOLA        PTSUNNY   82  64  54 SE13G20   29.73F
TYLER          MOSUNNY   83  63  50 S14G24    29.74F
LONGVIEW       MOSUNNY   83  65  54 SE17      29.76F
MARSHALL       MOSUNNY   83  64  51 SE6       29.80F
ATHENS         MOSUNNY   81  59  47 S16G23    29.72F
PALESTINE      MOSUNNY   83  63  50 SE10G20   29.76R
JACKSONVILLE   PTSUNNY   83  62  49 SE15G23   29.78S
HENDERSON      MOSUNNY   82  62  49 SE16G24   29.78S
NACOGDOCHES    MOSUNNY   82  61  47 S14G20    29.76F
LUFKIN         LGT RAIN  82  59  45 SE17G29   29.78F
$$

SUPPLEMENTAL OBSERVATIONS (CENTRAL)

CITY           SKY/WX    TMP DP  RH WIND       PRES   REMARKS
DENISON DAM      N/A     73  63  68 E10         N/A
CADDO GRASSLND   N/A     77  64  65 E7          N/A
PAT MAYSE LAKE   N/A     73  66  78 NE7         N/A
GREENVILLE       N/A     79  63  57 SE9G20      N/A
CEDAR HILL       N/A     82  63  51 SE14G26     N/A
ATHENS           N/A     82  57  42 S18G25      N/A
LAKE LIMESTONE   N/A    N/A N/A N/A SE10G22     N/A
MCGREGOR         N/A    N/A N/A N/A S18G26      N/A
TEMPLE           N/A     81  59  47 SE21G30     N/A
$$

SUPPLEMENTAL OBSERVATIONS (WEST)

CITY           SKY/WX    TMP DP  RH WIND       PRES   REMARKS
MILLERS CREEK    N/A     72  64  78 E9G20       N/A
POSSUM KINGDOM   N/A     77  64  65 SE14G23     N/A
LBJ GRASSLAND    N/A     75  64  69 E10         N/A
GRANBURY         N/A     81  64  57 SE20G26     N/A
COMANCHE         N/A     79  61  53 SE26G36     N/A
HAMBY            N/A     75  63  64 SE17G31     N/A
IVIE RESERVOIR   N/A     79  64  61 S20G29      N/A
COLORADO BEND    N/A     79  59  50 S14G26      N/A
$$

SUPPLEMENTAL OBSERVATIONS (EAST)

CITY           SKY/WX    TMP DP  RH WIND       PRES   REMARKS
CLARKSVILLE      N/A     77  64  65 E7G15       N/A
TEXARKANA        N/A     81  64  57 SE3         N/A
LINDEN           N/A     81  64  57 SE6G14      N/A
CADDO LAKE       N/A     82  63  51 SE3         N/A
GILMER           N/A     82  63  51 SE10        N/A
HENDERSON        N/A     82  61  47 SE12G21     N/A
LUFKIN           N/A     82  59  44 MISG        N/A
N SABINE NF      N/A     81  63  54 MISG        N/A
S SABINE NF      N/A     82  59  44 W5          N/A
$$

SUPPLEMENTAL OBSERVATIONS ARE A COLLECTION OF AUTOMATED INSTRUMENTS
THAT ARE MAINTAINED BY A VARIETY OF FEDERAL AND STATE AGENCIES.
CERTAIN ELEMENTS...SUCH AS HUMIDITY VALUES AND SUSTAINED WIND
SPEEDS...MAY BE APPROXIMATED.





USA.gov is the U.S. government's official web portal to all federal, state and local government web resources and services.